This demonstration page uses our WeatherBlox Daily Observations layout. Learn more.

Left ArrowRight Arrow

Hourly Observations for March 5, 2017

Temp ( °F °C ) Dew Point ( °F °C ) Humidity (%) Winds ( mph kmh ) Pressure ( in mb ) Visibility ( mi km ) Precip ( " mm )
12:52 am 00:52 Cloudy 58 14.4 31 -0.6 36 36 S 15 24 30.17 1022 10 16 0.00 0.00
1:52 am 01:52 Cloudy 57 13.9 32 0 39 39 S 15 24 30.17 1022 10 16 0.00 0.00
2:52 am 02:52 Cloudy 57 13.9 32 0 39 39 S 14 22 30.16 1021 10 16 0.00 0.00
3:52 am 03:52 Cloudy 56 13.3 32 0 40 40 S 14 22 30.14 1021 10 16 0.00 0.00
4:52 am 04:52 Cloudy 56 13.3 34 1.1 44 44 S 14 22 30.14 1021 10 16 0.00 0.00
5:52 am 05:52 Cloudy 55 12.8 39 3.9 55 55 S 14 22 30.15 1021 10 16 0.00 0.00
6:52 am 06:52 Cloudy 55 12.8 39 3.9 55 55 S 16 26 30.16 1021 10 16 0.00 0.00
7:43 am 07:43 Cloudy 55 12.8 39 3.9 55 55 S 16 26 30.15 1021 10 16 0.00 0.00
7:52 am 07:52 Cloudy 55 12.8 40 4.4 57 57 S 15 24 30.16 1021 10 16 0.00 0.00
8:52 am 08:52 Cloudy 56 13.3 44 6.7 65 65 S 22 35 30.15 1021 10 16 0.00 0.00
9:32 am 09:32 Cloudy 57 14 46 8 67 67 S 20 31 30.15 1021 10 16 0.00 0.00
9:52 am 09:52 Cloudy 57 13.9 47 8.3 69 69 S 17 28 30.14 1021 10 16 0.00 0.00
10:52 am 10:52 Cloudy 57 13.9 47 8.3 69 69 S 25 41 30.14 1021 10 16 0.00 0.00
11:52 am 11:52 Cloudy 58 14.4 47 8.3 67 67 undefined N/A 30.12 1020 10 16 0.00 0.00
12:52 pm 12:52 Cloudy 58 14.4 47 8.3 67 67 S 22 35 30.10 1019 10 16 0.00 0.00
1:52 pm 13:52 Cloudy 58 14.4 48 8.9 70 70 S 23 37 30.07 1018 10 16 0.00 0.00
2:52 pm 14:52 Cloudy 58 14.4 48 8.9 70 70 S 21 33 30.06 1018 10 16 0.00 0.00
3:52 pm 15:52 Cloudy 58 14.4 48 8.9 70 70 S 20 31 30.04 1017 10 16 0.00 0.00
4:52 pm 16:52 Cloudy 58 14.4 47 8.3 67 67 S 18 30 30.03 1017 10 16 0.00 0.00
5:52 pm 17:52 Cloudy 56 13.3 47 8.3 72 72 S 22 35 30.02 1017 10 16 0.00 0.00
6:34 pm 18:34 Mostly Cloudy 55 13 46 8 72 72 SSE 17 28 30.03 1017 10 16 0.00 0.00
6:52 pm 18:52 Mostly Cloudy 55 12.8 47 8.3 74 74 S 20 31 30.03 1017 10 16 0.00 0.00
7:52 pm 19:52 Clear 54 12.2 46 7.8 75 75 SSE 21 33 30.02 1017 10 16 0.00 0.00
8:52 pm 20:52 Clear 53 11.7 46 7.8 77 77 S 20 31 30.01 1016 10 16 0.00 0.00
9:52 pm 21:52 Clear 53 11.7 45 7.2 74 74 SSE 18 30 30.01 1016 10 16 0.00 0.00
10:52 pm 22:52 Mostly Clear 52 11.1 44 6.7 75 75 SSE 24 39 30.00 1016 10 16 0.00 0.00
11:31 pm 23:31 Mostly Cloudy 52 11.1 44 6.7 75 75 SSE 22 35 29.97 1015 10 16 0.00 0.00
11:48 pm 23:48 Partly Cloudy 52 11 45 7 77 77 SSE 22 35 29.97 1015 10 16 0.00 0.00
11:52 pm 23:52 Mostly Clear 52 11.1 44 6.7 75 75 SSE 20 31 29.97 1015 10 16 0.00 0.00

Powered by AerisWeather